Portada
METAR-TAF:

Aeropuertos :

Chichén Itzá, México

Aeropuerto Internacional de Kaua

latitud: 20-38-30N, longitud: 088-26-58W, altitud: 31 m

Observación

El informe se hizo hace 9 horas y 52 minutos, a las 20:44 UTC
Viento 10 kt del este
Temperatura 33°C
Humedad 59%
Presión 1013 hPa
Visibilidad: 12.9 km
Cielo nuboso a una altura de 2000 ft, Cumulus congestus.

METAR: MMCT 272044Z 10010KT 8SM BKN020TCU 33/24 A2990 RMK 8/200 MSGTX MMMD

Hora: 01:36 (06:36 UTC)


TAF: falta

METAR-TAF

Observaciones y pronósticos meteorológicos de más de 4000 aeropuertos (mensajes METAR y TAF).

Los puntos amarillos y rojos representan las estaciones disponibles.

Ponga el ratón en el punto deseado para ver el nombre de la estación.

Haga clic para ver las observaciones y los pronósticos meteorológicos.

Para cambiar el mapa : haga clic en los botones verdes con una cruz de color negro para hacer un zoom, en el botón verde con un guión para alejar o en las flechas verdes para mapas adyacentes.


METAR-TAF: